GFSCGP_850_dewp_015.txt.gz
Dewpoint
5 5 6 5 4 3 3 3 3 1 -1 -1 -1 -0 -2 -4 -4 -3 -4 -4 -3 -2 -1 0 -0 -1 0 -1 -0 1 4 8 10 10 11 12 12 12 12 12 12 11 11 11
4 5 3 2 3 4 2 4 3 0 -1 -1 -0 -0 -2 -3 -3 -3 -3 -4 -4 -4 -4 -2 -1 -1 -1 -1 -0 -1 -0 5 9 9 9 10 10 12 12 12 12 12 11 11
4 2 2 2 3 2 2 3 2 2 0 -1 -0 0 -1 -3 -3 -3 -3 -3 -4 -4 -4 -4 -4 -3 -2 -2 -1 1 0 3 7 10 9 10 11 11 12 12 12 12 11 12
3 0 1 2 3 2 3 0 1 2 2 3 -0 4 1 -2 -4 -5 -3 -3 -4 -4 -4 -5 -5 -4 -4 -3 -3 -1 1 3 4 5 7 7 9 10 11 12 12 11 12 12
5 2 2 2 1 -0 1 0 1 1 2 2 1 2 1 -2 -3 -5 -7 -9 -9 -6 -5 -5 -6 -6 -5 -5 -4 -2 -0 2 4 5 6 6 6 9 9 10 11 11 11 11
1 -1 -0 1 -1 -0 -0 0 0 1 1 2 1 1 -1 -4 -5 -6 -8 -10 -11 -9 -8 -6 -7 -6 -5 -5 -5 -4 -2 1 2 4 5 6 6 7 9 10 11 11 11 10
2 1 -1 -1 1 -0 1 1 1 4 5 3 -0 2 -1 -6 -7 -7 -8 -9 -10 -10 -9 -9 -8 -8 -5 -3 -3 -3 -4 -3 1 1 5 6 6 7 8 10 11 11 10 10
2 3 2 -0 1 2 2 1 2 4 4 3 -0 2 -2 -6 -7 -8 -9 -9 -9 -9 -10 -9 -7 -6 -3 -2 -3 -3 -2 -3 -3 5 6 8 8 10 10 11 11 10 10 10
2 3 0 -0 -0 1 2 3 0 2 1 1 1 -2 -5 -7 -8 -7 -7 -7 -7 -9 -9 -8 -4 -2 -1 -1 -3 -3 -1 -1 -1 2 7 8 10 10 10 11 10 10 10 9
2 3 1 1 -0 -0 1 -0 2 0 2 4 1 -1 -1 -5 -6 -6 -4 -5 -5 -4 -4 -4 -4 -4 -3 -3 -4 -3 -1 0 0 2 6 8 9 9 10 10 10 9 9 7
-0 1 3 2 2 2 2 2 2 2 3 3 4 1 -5 -4 -5 -5 -7 -7 -5 -5 -6 -6 -6 -6 -5 -6 -7 -5 -2 1 3 4 6 9 10 9 10 10 9 9 8 5
-1 2 4 2 0 -0 0 1 2 2 1 2 2 2 -4 -5 -5 -5 -4 -4 -5 -4 -3 -4 -5 -4 -6 -5 -3 -1 -0 4 4 6 7 8 9 10 9 8 8 8 7 3
-1 2 2 4 2 1 2 1 1 2 2 3 4 1 -5 -5 -3 -2 -2 -2 -1 -1 -1 1 0 -2 -3 -2 -1 2 3 3 4 7 7 8 9 9 8 8 6 5 4 2
-1 3 1 3 2 3 3 3 2 2 5 4 3 2 -0 -0 1 2 2 1 -0 -1 -1 0 1 2 1 0 1 3 5 5 7 7 8 8 8 8 7 6 6 4 1 2
2 3 3 3 3 3 3 3 3 4 4 6 3 4 3 2 3 3 2 1 2 3 3 3 2 2 2 5 5 2 6 8 8 9 8 8 6 5 3 3 0 -2 -2 -3
1 3 4 3 3 3 4 3 2 3 3 3 4 5 2 2 3 3 2 2 2 2 2 2 2 3 4 6 6 5 4 6 6 5 5 4 1 -1 -3 -4 -3 -0 -3 -4
4 4 2 1 2 3 5 3 3 4 5 5 7 5 4 3 3 3 3 3 3 3 3 3 3 4 4 4 4 4 5 2 3 3 2 -0 -2 -3 -2 -3 -2 -4 -5 -6
4 4 3 3 3 4 3 2 3 5 5 4 4 4 3 3 3 2 1 1 3 2 2 2 3 3 3 2 3 3 2 1 -0 -2 -3 -3 -3 -2 -1 -1 -3 -6 -6 -5
3 4 5 5 4 2 2 4 5 6 5 2 4 5 5 2 3 2 -2 -2 -1 -0 1 1 2 2 1 -0 1 1 -0 -2 -3 -5 -4 -2 -0 1 2 2 1 -2 -1 -3
3 3 5 6 6 5 3 2 3 3 6 1 2 5 4 2 5 3 -1 -2 -1 -1 -1 -1 -1 -1 -0 -1 -2 -1 -1 -2 -0 1 2 2 2 2 -1 -3 -2 -5 -6 -5
6 6 6 6 6 4 1 1 3 6 2 2 1 3 3 2 1 2 -1 -3 -3 -2 -1 -1 -1 -1 -0 -1 1 2 1 2 3 2 1 -0 -1 -3 -6 -8 -6 -5 -7 -13
5 5 6 6 6 5 -1 3 5 2 2 1 1 3 1 0 -0 1 1 0 -1 -1 0 0 -0 1 2 2 3 3 3 3 2 1 -3 -8 -8 -7 -7 -6 -6 -12 -14 -14
6 3 4 3 3 -1 -0 1 1 2 1 1 1 4 2 1 -0 -1 -1 1 0 -0 0 1 1 1 1 2 2 2 1 0 -1 -4 -8 -8 -7 -4 -5 -10 -14 -13 -14 -18
2 1 3 3 2 1 1 1 1 1 0 0 1 4 2 2 1 -3 -4 -6 -6 -4 -5 -2 -0 0 -0 -2 -2 -3 -6 -8 -8 -7 -4 -3 -4 -8 -13 -13 -13 -16 -21 -24
3 3 3 3 2 2 1 1 1 -0 1 1 3 3 3 3 1 -2 -4 -7 -8 -8 -8 -8 -8 -8 -9 -9 -8 -8 -8 -7 -6 -5 -5 -7 -11 -14 -13 -14 -17 -22 -23 -23
2 3 4 5 2 2 1 1 1 -0 0 1 1 1 1 1 1 -1 -4 -6 -6 -7 -7 -7 -7 -7 -7 -8 -8 -8 -7 -6 -4 -6 -9 -14 -14 -13 -14 -17 -22 -23 -23 -24

GFSCGP_850_dewp_018.txt.gz
Dewpoint
7 7 8 6 5 2 3 4 4 2 -0 -1 -1 -1 -2 -3 -3 -3 -4 -4 -4 -3 -2 -1 -0 0 -0 0 0 0 1 2 8 9 9 9 11 12 11 12 12 11 12 11
5 7 4 3 3 4 4 4 4 1 -1 -1 -0 -0 -2 -3 -3 -3 -3 -4 -4 -5 -5 -4 -3 -2 -1 -0 -1 -0 -0 -0 3 8 8 9 8 10 10 12 12 12 11 11
5 3 2 3 3 4 3 3 2 2 0 -1 -0 -2 -3 -3 -3 -4 -3 -4 -4 -4 -4 -5 -4 -3 -3 -2 -1 -1 -1 1 -0 2 8 9 9 10 11 11 11 12 11 11
3 0 3 3 3 2 3 0 1 1 1 3 -0 3 0 -2 -4 -5 -5 -5 -4 -4 -4 -4 -6 -5 -5 -5 -5 -4 -2 -2 1 2 5 9 9 9 9 10 11 11 11 11
4 2 1 2 2 0 2 -0 0 1 1 1 1 3 -0 -3 -3 -4 -6 -6 -7 -8 -7 -6 -6 -6 -6 -6 -6 -6 -5 -3 -1 2 4 7 8 8 8 8 9 9 10 11
1 -1 0 1 -1 -1 0 -0 0 1 1 1 0 2 -1 -4 -4 -7 -8 -9 -10 -10 -9 -7 -6 -6 -6 -6 -5 -5 -5 -4 -3 1 3 6 8 8 9 8 9 9 10 11
3 1 -1 -1 1 -0 -0 0 1 -0 0 2 -0 2 0 -4 -6 -7 -7 -8 -9 -9 -10 -9 -9 -8 -8 -5 -4 -4 -4 -4 -4 -3 2 5 7 8 7 7 8 8 8 11
3 3 1 -1 1 2 1 0 1 1 3 3 -0 2 -1 -5 -6 -7 -8 -8 -8 -9 -9 -9 -9 -8 -5 -3 -4 -3 -3 -4 -4 -3 -3 3 5 6 8 7 6 7 7 9
2 2 0 -0 -0 -0 2 2 -0 1 0 -0 1 -1 -5 -7 -8 -6 -5 -5 -5 -5 -6 -8 -9 -3 -1 -1 -1 -2 -3 -3 -3 -3 -1 0 4 6 6 7 7 8 8 10
1 3 1 1 -1 -0 0 -0 1 -2 -0 3 1 -0 -2 -5 -6 -5 -6 -6 -5 -5 -5 -5 -4 -3 -4 -5 -5 -6 -4 -4 -5 -4 -2 0 2 6 7 7 7 8 10 11
-0 1 2 1 2 2 2 2 1 1 1 2 4 2 -4 -5 -6 -5 -6 -4 -3 -2 -2 -2 -5 -5 -4 -5 -6 -6 -7 -8 -9 -7 -1 1 3 6 7 8 9 10 10 10
-1 2 1 2 -0 -1 0 1 1 0 -0 1 1 2 -4 -5 -5 -4 -3 -1 1 1 -1 -2 -4 -4 -3 -3 -5 -5 -5 -5 -4 -3 -1 1 4 8 8 8 10 10 9 9
-1 2 1 3 2 1 2 1 1 1 1 0 4 2 -4 -4 -4 -3 -1 2 3 2 2 0 -0 -1 -1 -1 -2 -3 -4 -4 -4 2 2 5 6 8 8 9 10 9 8 8
-1 2 -0 2 0 2 2 2 1 2 4 3 2 1 -1 -2 -1 0 2 3 3 2 1 1 1 2 2 1 0 -1 -2 -2 1 4 4 5 6 7 9 9 8 8 7 7
1 2 2 2 2 2 2 2 2 3 2 4 2 2 1 1 1 3 3 2 2 2 3 3 2 1 2 2 2 3 4 5 5 7 5 7 8 9 8 8 7 5 4 2
1 4 3 4 2 3 3 2 2 2 2 2 2 3 0 2 3 3 3 3 3 3 3 3 3 3 3 3 4 5 4 5 6 7 7 7 6 6 6 4 4 3 2 -1
2 3 2 1 1 2 4 3 2 2 2 3 6 4 3 4 3 3 2 -1 -0 2 2 2 3 3 3 3 3 3 3 3 4 4 2 2 4 3 2 2 2 -0 -1 -1
4 3 1 1 2 4 2 -0 1 2 3 4 4 4 3 5 3 2 -1 -1 -1 -1 0 1 2 2 2 2 2 2 1 1 2 2 2 2 2 1 -0 -2 -3 -1 -1 -0
2 4 2 3 3 2 2 3 4 5 4 3 4 2 5 4 3 2 1 -0 0 0 0 -0 1 1 2 2 2 2 2 -0 0 -1 -2 -2 -1 -3 -2 -0 1 1 0 -1
2 3 5 5 6 5 1 2 3 3 6 2 1 2 4 3 5 3 1 -1 -1 -0 -1 -1 -1 -0 -1 -1 -0 -1 -1 -0 -2 -2 -2 -1 0 1 1 1 1 -1 -0 -0
6 5 6 6 6 3 0 -0 3 5 2 1 1 1 2 2 1 3 1 -2 -2 -1 -2 -2 -2 -1 -2 -1 -0 -0 -1 -1 -1 1 1 1 1 0 -0 -0 -1 -3 -7 -10
5 6 7 6 6 5 -1 3 5 1 1 2 1 2 2 1 1 2 1 0 -0 1 -0 -1 0 0 0 1 1 1 1 0 1 1 1 1 0 -1 -6 -8 -7 -9 -9 -13
5 2 4 4 3 -1 -1 1 1 2 1 1 1 2 2 1 1 2 1 1 1 1 1 1 1 2 2 2 2 2 0 0 -0 -3 -5 -7 -8 -8 -6 -2 -4 -12 -14 -16
2 1 3 2 1 0 0 1 1 1 0 -0 0 2 2 2 1 0 1 -1 1 1 1 2 1 1 1 1 1 1 1 -0 -3 -6 -7 -6 -4 -3 -9 -14 -14 -16 -21 -24
3 3 3 3 3 2 2 1 1 1 0 1 1 3 2 2 1 -1 -2 -4 -4 -3 1 1 1 -1 -1 -2 -6 -6 -6 -4 -3 -4 -3 -5 -10 -13 -13 -15 -18 -23 -23 -22
2 3 4 3 2 2 2 1 1 1 0 0 2 2 3 2 2 -1 -3 -5 -6 -6 -6 -6 -6 -6 -7 -8 -4 -4 -5 -7 -5 -6 -9 -13 -14 -13 -14 -18 -22 -22 -22 -23

GFSCGP_850_dewp_021.txt.gz
Dewpoint
7 8 8 6 4 2 2 4 4 2 0 -0 -0 -1 -2 -3 -3 -3 -3 -2 -1 -1 -2 -1 -1 -1 0 0 -0 -0 1 1 1 8 10 10 10 10 12 12 11 11 11 12
6 8 7 5 4 5 5 6 5 2 -0 -0 -0 0 -2 -3 -3 -3 -3 -3 -4 -4 -4 -4 -2 -1 -2 -1 -1 -0 0 0 0 2 6 9 9 9 10 10 10 11 11 11
7 5 4 5 4 5 4 4 3 3 0 -1 -0 -1 -3 -5 -4 -4 -4 -4 -4 -4 -5 -6 -6 -6 -4 -3 -2 -3 -1 -1 -1 -0 1 9 10 10 9 10 11 11 11 11
5 1 6 4 4 2 3 0 1 1 1 3 -0 3 0 -3 -4 -4 -5 -5 -6 -5 -5 -5 -5 -5 -5 -6 -4 -3 -4 -4 -3 -2 1 4 7 9 9 8 9 10 10 10
5 2 4 4 3 1 2 -0 0 0 1 1 1 2 0 -4 -4 -6 -7 -7 -7 -10 -9 -10 -9 -8 -6 -6 -6 -5 -5 -5 -4 -3 -3 2 5 8 8 9 9 9 9 9
1 -0 0 0 -0 -1 -0 -0 -0 0 0 1 -0 1 -1 -5 -5 -6 -7 -7 -8 -9 -9 -10 -9 -7 -6 -6 -6 -6 -6 -6 -5 -5 -3 -2 4 6 7 9 9 8 8 8
3 1 -1 -0 1 -0 -1 0 -0 -1 0 1 -0 2 -0 -3 -5 -7 -6 -8 -8 -8 -9 -9 -9 -9 -9 -9 -8 -6 -6 -6 -5 -5 -4 -2 1 4 5 7 9 8 8 8
5 4 1 -1 1 2 1 0 -0 -1 1 2 -0 3 -2 -5 -6 -7 -6 -5 -5 -5 -4 -4 -5 -8 -9 -6 -7 -6 -5 -4 -3 -3 -3 -3 -3 0 4 7 7 9 8 7
2 3 0 -1 -0 -1 2 1 -1 1 -1 -1 0 -2 -6 -7 -7 -6 -6 -6 -4 -3 -3 -2 -1 -2 -2 -0 -1 -2 -2 -3 -4 -4 -4 -4 -3 -1 2 4 7 8 8 7
1 3 1 1 -1 -0 0 -0 1 -2 -3 2 -0 0 -2 -5 -6 -5 -6 -4 -3 -2 1 0 -1 -1 -1 -3 -2 -5 -5 -4 -4 -4 -6 -6 -6 -4 -1 2 6 6 7 8
-0 1 2 1 2 2 2 2 1 -0 0 1 3 0 -4 -5 -6 -5 -4 -3 -2 0 2 2 2 1 -2 -3 -5 -3 -5 -6 -6 -6 -6 -6 -6 -5 -1 0 5 7 8 8
-0 1 2 2 -0 -1 0 1 1 -0 -1 0 1 2 -4 -4 -5 -4 -3 -1 1 2 3 3 2 1 0 -1 -0 -0 -0 -2 -4 -4 -4 -6 -6 -2 1 3 4 8 9 9
-0 1 0 3 2 1 2 1 0 -0 -1 -0 3 1 -4 -5 -4 -3 -1 1 3 2 2 2 1 1 1 2 1 1 -0 -1 -2 -3 -3 -4 -5 -1 3 6 7 8 9 9
-1 1 -1 1 -0 1 2 2 1 1 2 2 2 1 -2 -2 -1 -1 2 3 3 3 3 2 2 3 2 2 1 0 -0 -1 -1 -2 -2 -0 4 4 7 7 8 9 8 8
-0 1 1 2 2 1 2 2 2 1 2 3 1 1 -0 -1 -1 2 3 2 2 1 1 3 3 3 3 3 2 2 3 2 3 2 6 7 8 8 8 8 7 7 7 6
1 4 3 3 2 2 3 2 2 2 2 2 1 2 -1 -1 2 4 3 0 -0 -0 -1 1 2 2 3 3 3 3 4 4 4 5 5 6 6 6 7 6 6 4 4 5
1 3 2 2 -0 2 4 2 2 2 1 1 3 1 1 3 4 3 1 -0 -1 -1 -1 -0 1 1 2 3 3 3 2 2 3 4 4 4 5 5 4 3 2 1 1 0
3 3 3 1 1 3 0 -1 0 1 1 1 1 2 2 3 4 3 1 0 -1 -0 0 0 1 1 2 1 1 0 0 0 0 1 2 1 1 1 0 1 0 0 -0 -1
1 3 2 3 3 1 1 4 4 4 3 2 3 3 2 4 3 3 2 -0 -1 -0 -1 -1 -1 -0 0 0 -1 -1 -1 -0 -1 -1 -1 -0 0 0 -0 0 -0 -0 0 0
2 2 4 4 5 4 -0 2 3 2 4 1 2 2 1 3 5 4 3 -1 -1 -1 -2 -2 -1 -1 -1 -1 -1 -1 -1 -1 -1 -1 -1 -0 -1 -2 -1 -0 0 -0 0 1
6 6 5 5 6 3 -1 -1 3 4 2 1 1 1 2 2 2 3 3 1 1 1 -1 -1 -1 -1 -1 -1 -1 -1 -1 -1 -1 -1 -1 -1 -0 -0 -0 -0 0 -0 0 -0
5 6 6 6 6 4 1 3 4 1 1 2 1 1 2 2 2 3 3 2 2 1 0 1 1 1 -0 1 1 -0 -0 -0 -0 -0 -1 -0 -0 -0 -0 -0 -2 -6 -7 -8
5 2 3 3 2 -1 0 1 -0 0 1 1 1 0 2 2 2 3 3 2 2 2 1 2 2 2 1 1 1 1 -0 -0 -0 0 -0 -3 -7 -8 -7 -4 -5 -7 -13 -15
2 1 3 3 1 1 1 2 2 1 1 0 1 0 2 2 2 2 3 2 2 2 2 2 2 2 2 1 1 1 -0 -2 -4 -8 -8 -8 -6 -5 -9 -13 -14 -16 -19 -23
2 2 3 3 2 2 2 2 1 1 1 1 0 1 2 2 2 2 1 -0 0 2 2 2 1 2 1 1 0 -2 -5 -7 -6 -4 -4 -4 -8 -13 -14 -15 -18 -22 -23 -22
1 2 3 3 1 2 2 2 2 1 1 1 -0 1 2 2 2 1 -1 -2 -3 -1 0 -1 -3 -4 -5 -5 -4 -3 -4 -4 -3 -4 -7 -12 -14 -14 -15 -18 -21 -22 -22 -22

GFSCGP_850_dewp_027.txt.gz
Dewpoint
6 7 6 5 3 2 3 4 5 3 1 1 2 1 -0 -1 -2 -2 -2 -2 -2 -1 -1 -1 -1 -2 -1 -1 -1 -1 -1 -1 1 2 4 5 3 6 9 9 9 9 10 11
7 7 5 3 3 3 3 4 4 3 -0 -0 0 0 -1 -2 -2 -2 -2 -3 -3 -3 -4 -5 -5 -5 -5 -4 -4 -4 -2 -0 0 0 2 2 2 3 4 7 8 9 9 9
6 7 4 4 5 5 5 5 4 4 0 -1 -0 1 -2 -4 -5 -6 -7 -7 -6 -5 -6 -9 -9 -7 -6 -6 -6 -6 -5 -2 -1 -0 0 1 2 4 4 4 6 7 9 9
6 5 5 5 6 5 6 2 2 1 2 4 -1 4 -1 -3 -6 -7 -7 -7 -8 -9 -7 -6 -7 -8 -7 -6 -5 -5 -5 -5 -4 -2 -2 0 1 2 2 2 3 5 8 9
5 6 7 7 6 2 3 -0 0 0 1 -0 0 1 -3 -6 -6 -6 -7 -4 -3 -3 -3 -3 -3 -4 -5 -8 -7 -6 -5 -5 -5 -3 -3 -3 -1 -1 -1 1 3 6 7 8
3 5 4 5 4 3 -1 -1 -1 -1 -0 2 -1 -0 -4 -6 -5 -5 -6 -5 -3 -2 -2 -3 -3 -3 -4 -5 -6 -7 -6 -6 -5 -5 -4 -3 -3 -4 -3 -2 -1 -0 4 6
3 2 2 1 2 -0 -0 2 3 0 2 3 -1 1 -3 -5 -5 -5 -6 -4 -1 -0 -0 0 0 -1 -2 -3 -4 -4 -6 -4 -4 -5 -5 -5 -5 -4 -3 -2 1 3 2 4
5 6 2 -1 1 2 1 1 3 0 -1 -1 -0 2 -3 -5 -6 -6 -5 -2 -0 0 2 2 2 2 1 0 -1 -2 -3 -2 -1 -2 -2 -2 -3 -3 -2 -3 -2 2 5 7
3 4 0 -0 -1 -0 1 2 -2 0 -1 0 -2 -4 -7 -6 -6 -6 -4 -3 -1 0 3 2 2 2 2 1 0 0 -1 -3 -2 -3 -3 -3 -3 -2 -1 -0 1 4 5 5
0 4 1 0 -1 -1 0 -1 2 -0 -1 -1 -3 -2 -4 -5 -6 -5 -4 -3 -1 2 3 2 2 2 2 2 1 0 0 -1 -3 -2 -4 -4 -5 -5 -5 -5 -5 -1 2 4
-1 1 3 1 1 2 1 2 0 -0 0 1 -1 -4 -5 -5 -6 -4 -4 -3 -1 3 2 2 2 2 2 3 2 2 1 1 -0 1 0 -1 -3 -4 -4 -5 -6 -7 -7 -4
-1 1 3 3 -0 -1 -0 1 -1 1 0 1 1 -1 -5 -4 -5 -5 -4 -2 2 3 2 2 2 2 2 3 3 2 2 2 1 1 1 0 -1 -2 -3 -4 -5 -6 -7 -7
-0 0 2 3 1 0 2 1 -1 -2 -1 2 2 -2 -4 -5 -4 -4 -3 -0 3 2 2 2 2 2 2 2 3 3 2 2 2 1 0 -0 -1 -1 -2 -3 -4 -4 -3 -3
-1 -0 -0 0 -1 1 3 2 -0 0 2 1 1 -1 -3 -3 -2 -3 -2 1 3 2 1 1 1 2 2 2 3 3 3 3 3 2 2 2 1 -0 -0 -1 -1 1 3 5
-1 1 0 1 -0 1 1 2 1 1 0 1 -1 -0 -2 -2 -2 -2 -1 3 2 1 1 0 0 1 1 2 2 2 2 3 2 1 2 4 4 3 2 4 5 6 5 6
-0 3 1 0 1 2 3 2 1 1 1 1 1 1 -2 -2 -2 1 4 2 1 0 0 -1 -1 -0 0 0 1 1 1 1 0 1 2 3 3 4 5 5 5 5 5 5
1 3 -0 1 0 1 3 2 2 1 1 1 2 0 -2 -1 0 3 3 2 1 -0 -1 -1 -1 -1 -1 -1 -1 -1 -0 -0 -1 0 1 1 2 3 3 3 3 3 3 3
1 2 1 0 -0 2 -2 -1 -0 1 0 0 -0 -1 -1 -1 2 3 2 2 0 0 -1 -0 -1 -1 -1 -1 -1 -1 -1 -1 -1 -1 0 1 1 1 1 1 1 1 1 1
0 2 3 2 2 -1 1 2 1 2 2 -1 -0 -1 -1 1 2 2 3 2 1 1 1 1 1 -0 -1 -2 -2 -2 -2 -1 -1 -1 -1 -0 -0 -0 -1 -0 0 0 0 -0
1 1 2 2 3 3 -1 2 2 1 5 1 -0 0 1 2 4 3 3 2 2 2 2 2 2 0 -1 -1 -1 -1 -1 -1 -1 -1 -1 -1 -1 -1 -1 -1 -1 -1 -1 -1
5 5 5 4 4 2 -2 -0 2 4 3 -0 1 2 2 2 2 2 3 2 2 1 2 2 1 1 0 -0 -0 -1 -1 -1 -1 -1 -1 -1 -1 -1 -2 -2 -2 -1 -2 -1
3 5 4 2 3 3 -1 1 3 1 0 0 1 1 1 1 2 2 3 2 2 2 2 2 1 1 1 0 0 -0 -0 -1 -0 -1 -1 -1 -1 -1 -1 -1 -2 -2 -2 -4
4 1 3 2 1 -2 0 1 0 0 1 1 1 1 1 0 1 2 3 2 2 2 2 2 1 1 1 1 1 -0 -0 -1 -2 -3 -4 -4 -5 -6 -8 -10 -14 -15 -16 -19
2 1 2 2 1 0 -0 1 2 1 1 1 1 1 1 1 1 2 3 3 2 2 2 2 1 1 1 1 -0 -2 -3 -6 -7 -5 -4 -7 -11 -13 -14 -15 -17 -20 -22 -22
1 1 2 2 1 1 1 2 2 2 1 2 2 1 1 1 1 2 3 3 2 2 2 2 2 1 1 -1 -4 -5 -6 -6 -4 -5 -9 -13 -14 -15 -16 -19 -22 -22 -22 -22
1 2 4 4 1 2 1 2 2 2 2 2 2 1 1 1 1 2 2 2 2 2 2 2 1 1 -1 -3 -4 -4 -4 -4 -5 -9 -14 -14 -15 -16 -19 -21 -21 -21 -22 -22

GFSCGP_850_dewp_033.txt.gz
Dewpoint
7 7 6 2 -1 -3 -4 -1 -3 -4 0 1 1 -0 -2 -1 -1 -2 -3 -3 -4 -4 -4 -2 -1 -1 -1 -1 -0 1 1 1 2 4 8 10 5 2 5 11 13 14 13 13
6 7 1 -1 -2 -0 0 -0 -1 -1 -0 1 -2 -0 -2 -2 -2 -3 -4 -4 -4 -4 -4 -3 -5 -4 -3 -3 -2 -1 0 1 1 1 3 7 10 2 1 3 8 10 11 11
6 4 1 1 0 1 -0 -0 -1 1 1 -0 0 -0 -1 -3 -3 -3 -5 -5 -5 -4 -4 -6 -4 -2 -1 -2 -5 -4 -2 -1 -1 -0 1 3 8 11 11 8 6 7 9 11
5 4 3 3 2 -1 1 -1 1 2 2 -1 -1 -6 -1 -3 -5 -6 -6 -7 -6 -4 -3 -1 -1 0 1 -2 -6 -5 -5 -5 -5 -4 -3 -1 4 9 11 11 11 8 6 6
6 6 4 3 1 -1 2 1 2 3 3 3 1 1 -2 -5 -4 -4 -4 -3 -2 -2 -1 -1 1 1 1 0 -4 -5 -6 -3 -2 -5 -5 -4 -1 4 9 10 11 11 11 7
5 5 4 4 1 -0 1 1 2 2 2 6 2 -1 -3 -5 -6 -4 -4 -3 -2 -2 -0 1 2 2 2 2 -2 -3 -5 -5 -4 -4 -4 -4 -2 4 7 9 10 10 11 11
4 4 4 4 3 1 1 3 7 7 8 6 -1 0 -3 -6 -7 -6 -5 -3 -2 -1 1 2 2 3 3 2 1 -0 -0 -1 -2 -2 -1 1 -0 -0 5 8 9 10 10 11
8 7 5 3 4 4 3 3 6 6 5 3 -2 0 -3 -7 -7 -6 -3 -2 -1 1 2 3 3 3 3 3 3 1 1 1 1 1 -0 1 1 3 2 3 8 10 8 9
7 6 4 3 2 3 4 5 -1 2 -2 1 -2 -4 -6 -6 -6 -7 -5 -3 -0 1 3 3 2 2 2 3 3 3 3 3 3 2 1 1 2 3 4 7 8 9 9 9
2 6 5 3 3 2 3 0 5 5 7 0 -3 -7 -4 -4 -5 -5 -5 -2 0 2 3 2 2 2 2 3 3 3 3 3 2 2 1 1 2 3 1 -1 5 8 7 6
0 2 4 3 3 3 2 3 1 1 1 3 -4 -6 -6 -5 -5 -3 -3 -2 -1 2 3 2 1 2 2 2 2 2 3 3 2 2 1 1 2 2 1 1 1 4 6 3
-0 3 5 3 0 -1 -0 0 -0 2 4 0 1 -2 -7 -4 -4 -4 -3 -1 -1 3 2 2 1 1 2 2 2 2 2 2 2 2 2 2 2 4 4 5 3 2 -0 -1
-1 3 5 4 2 0 2 0 -0 -1 1 4 1 -1 -6 -5 -5 -3 -1 -0 0 2 2 2 1 1 1 2 1 1 1 2 2 2 2 2 3 3 3 4 4 1 0 -1
-2 0 3 3 5 2 3 2 0 1 4 0 -2 -2 -3 -4 -3 -1 -0 1 2 2 2 1 1 0 1 1 0 0 0 1 0 1 1 2 3 3 3 3 3 3 2 2
-1 6 3 -0 0 2 2 1 1 3 1 1 -3 -4 -4 -4 -2 -1 1 3 3 2 1 0 -0 -0 0 -1 -0 -0 -0 -0 -0 1 2 2 3 3 3 4 4 3 4 4
-0 5 3 4 1 1 3 1 0 1 0 -1 -2 -2 -5 -4 -2 -0 2 3 2 1 0 0 -0 -0 -1 -1 -1 -1 -1 -1 -1 1 2 2 2 2 3 3 3 4 4 4
1 4 4 4 0 1 3 1 1 1 -0 -1 0 -2 -3 -2 -2 0 2 2 1 1 0 0 0 -1 -2 -2 -2 -2 -1 -1 -0 1 1 1 2 2 2 2 2 3 3 2
1 3 4 5 2 5 1 -1 -2 -0 -1 -1 -2 -3 -3 -2 -1 2 2 2 1 1 1 1 -0 -1 -1 -1 -2 -1 -0 -1 -0 0 0 1 1 1 1 1 1 1 1 1
-2 0 3 4 3 -0 -3 -2 -0 1 1 -2 -1 -2 -3 -2 0 2 2 2 1 1 1 0 -0 -1 -2 -1 -1 -0 -0 -0 0 0 0 0 0 0 0 0 -0 -0 -0 -0
-1 -1 2 1 3 2 0 0 -1 -1 5 -1 -2 -2 -1 1 4 3 2 2 1 1 1 1 -0 -1 -1 -1 -1 -1 -1 -1 -1 -1 -1 -1 -1 -1 -1 -1 -1 -1 -1 -2
3 2 3 2 2 -0 -3 2 1 5 4 1 0 1 2 2 2 3 2 1 1 1 1 1 1 -0 -1 -1 -1 -1 -1 -1 -1 -2 -2 -2 -2 -2 -2 -2 -2 -2 -2 -2
1 2 2 1 2 3 -2 2 3 1 1 1 1 2 2 2 2 2 2 2 1 1 1 1 1 0 -1 -1 -1 -1 -1 -1 -1 -1 -1 -1 -2 -2 -2 -2 -2 -4 -8 -15
2 -1 0 -0 0 -3 -2 -2 1 1 1 2 2 2 1 1 1 2 2 2 2 1 1 1 1 1 -0 -1 -2 -2 -3 -3 -4 -5 -6 -7 -8 -11 -14 -15 -17 -20 -21 -20
-1 -2 1 -0 -2 -2 -2 1 1 1 2 2 2 1 1 1 2 2 2 2 2 2 1 1 1 1 1 -1 -3 -4 -4 -4 -6 -10 -12 -14 -15 -16 -18 -21 -21 -21 -21 -22
-0 0 1 0 -1 1 -0 -1 -0 2 2 1 1 1 1 2 1 1 2 2 2 2 2 2 1 1 1 -1 -3 -4 -5 -4 -7 -12 -14 -15 -16 -18 -20 -21 -21 -21 -22 -22
0 1 2 1 -2 -1 -1 1 2 2 2 1 1 1 2 1 1 1 1 2 2 3 2 2 2 1 1 -0 -3 -4 -4 -5 -7 -12 -15 -15 -17 -19 -20 -20 -20 -21 -22 -22